Weather in Lignano Sabbiadoro

Italy     45°41′03″N   13°07′29″E
temp.,
°C
wind,
m/s
gust,
m/s
humid.,
%
clouds,
%
prec.,
mm/h
press.,
hPa
HPBL,
m
24 january, mon
mon2401:00+3nne227630 0.0 103111
04:00+3ne22795 0.0 103010
07:00+3ene33835 0.0 103140
10:00+6ene47735 0.0 1032371
13:00+8e445818 0.0 1033757
16:00+7se24626 0.0 1033121
19:00+6e356999 0.0 1034132
22:00+5e3568100 0.0 1035153
25 january, tue
tue2501:00+5ene2270100 0.0 103554
04:00+4ne2271100 0.1 103445
07:00+4ene117461 0.1 103330
10:00+5ene22715 0.0 1033197
13:00+7sse11665 0.0 1032649
16:00+7se116823 0.0 1031340
19:00+5ene117913 0.0 103110
22:00+4nne22845 0.0 103113
26 january, wed
wed2601:00+3nne11865 0.0 103110
04:00+2nne22882 0.0 103011
07:00+2nne11882 0.0 102910
10:00+5nne11760 0.0 1030124
13:00+8nnw11635 0.0 1029396
16:00+8wnw006672 0.0 102814
19:00+5nnw11765 0.0 102910
22:00+4nne11800 0.0 103010
27 january, thu
thu2701:00+3nne11855 0.0 103010
04:00+3nne11855 0.0 102910
07:00+2n118441 0.0 102910
10:00+5nnw117084 0.0 103090
13:00+8wsw116234 0.0 1028397
16:00+8s116726 0.0 102738
19:00+5ssw1181100 0.0 102610
22:00+4ene118597 0.0 102510
28 january, fri
fri2801:00+4ne228799 0.0 102428
04:00+4nne338855 0.0 102253
07:00+5ne468491 0.0 1022130
10:00+7ene35765 0.0 1025298
13:00+10ene23580 0.0 1025423
16:00+10ne22560 0.0 102623
19:00+7nw11650 0.0 102710
22:00+5nnw33600 0.0 102926